When you browse on this site, cookies collect data to enhance your experience and personalize the content and advertising you see.
Visit our Privacy Policy to learn more. By continuing to use the site, you agree to this use of cookies and data.
  • In France
  • List of Countries
  • For 7 days
  • Water Temperature
  • Satellite Maps
  • Weather Map
  • Weather Widgets
  • user-avatar
    Login

    Hourly Weather Sliven

    Today, 22 May, Wednesday

    Time Temperature Precipitation Wind Pressure Humidity
    00:00 +14°C° 0 mm 1 mps 730 mmHg 80%
    01:00 +13°C° 0 mm 1 mps 730 mmHg 80%
    02:00 +13°C° 0 mm 1 mps 730 mmHg 79%
    03:00 +13°C° 0 mm 1 mps 730 mmHg 79%
    04:00 +13°C° 0 mm 1 mps 730 mmHg 79%
    05:00 +12°C° 0 mm 1 mps 730 mmHg 78%
    06:00 +15°C° 0 mm 1 mps 731 mmHg 73%
    07:00 +18°C° 0 mm 1 mps 731 mmHg 67%
    08:00 +20°C° 0 mm 1 mps 732 mmHg 62%
    09:00 +21°C° 0 mm 1 mps 732 mmHg 57%
    10:00 +23°C° 0 mm 1 mps 732 mmHg 52%
    11:00 +24°C° 0 mm 2 mps 732 mmHg 47%
    12:00 +24°C° 0.1 mm 2 mps 731 mmHg 48%
    13:00 +25°C° 0.1 mm 2 mps 731 mmHg 48%
    14:00 +25°C° 0.1 mm 3 mps 731 mmHg 49%
    15:00 +25°C° 0.1 mm 2 mps 731 mmHg 50%
    16:00 +25°C° 0.1 mm 2 mps 730 mmHg 52%
    17:00 +24°C° 0.1 mm 1 mps 730 mmHg 53%
    18:00 +22°C° 0.1 mm 1 mps 730 mmHg 59%
    19:00 +21°C° 0.1 mm 1 mps 730 mmHg 65%
    20:00 +19°C° 0.1 mm 1 mps 730 mmHg 71%
    21:00 +18°C° 0.3 mm 1 mps 730 mmHg 74%
    22:00 +16°C° 0.3 mm 1 mps 730 mmHg 77%
    23:00 +16°C° 0.3 mm 1 mps 730 mmHg 80%

    Tomorrow, 23 May, Thursday

    Time Temperature Precipitation Wind Pressure Humidity
    00:00 +15°C° 0.1 mm 1 mps 730 mmHg 81%
    01:00 +15°C° 0.1 mm 1 mps 730 mmHg 82%
    02:00 +15°C° 0.1 mm 1 mps 730 mmHg 83%
    03:00 +14°C° 0 mm 1 mps 730 mmHg 84%
    04:00 +14°C° 0 mm 1 mps 730 mmHg 85%
    05:00 +14°C° 0 mm 1 mps 730 mmHg 86%
    06:00 +16°C° 0 mm 2 mps 730 mmHg 81%
    07:00 +18°C° 0 mm 2 mps 730 mmHg 76%
    08:00 +19°C° 0 mm 2 mps 730 mmHg 71%
    09:00 +21°C° 0 mm 2 mps 730 mmHg 66%
    10:00 +23°C° 0 mm 2 mps 730 mmHg 61%
    11:00 +24°C° 0 mm 2 mps 730 mmHg 55%
    12:00 +24°C° 0.2 mm 2 mps 730 mmHg 56%
    13:00 +24°C° 0.2 mm 2 mps 730 mmHg 57%
    14:00 +25°C° 0.2 mm 2 mps 730 mmHg 58%
    15:00 +24°C° 0.5 mm 2 mps 730 mmHg 61%
    16:00 +24°C° 0.5 mm 2 mps 729 mmHg 64%
    17:00 +23°C° 0.5 mm 2 mps 729 mmHg 67%
    18:00 +20°C° 0.2 mm 2 mps 729 mmHg 73%
    19:00 +19°C° 0.2 mm 2 mps 729 mmHg 80%
    20:00 +18°C° 0.2 mm 1 mps 729 mmHg 86%
    21:00 +17°C° 0.7 mm 2 mps 729 mmHg 88%
    22:00 +16°C° 0.7 mm 2 mps 729 mmHg 90%
    23:00 +15°C° 0.7 mm 2 mps 729 mmHg 92%

    Day after tomorrow, 24 May, Friday

    Time Temperature Precipitation Wind Pressure Humidity
    00:00 +15°C° 0.5 mm 2 mps 729 mmHg 92%
    01:00 +15°C° 0.5 mm 2 mps 728 mmHg 92%
    02:00 +14°C° 0.5 mm 2 mps 728 mmHg 92%
    03:00 +14°C° 0.3 mm 2 mps 728 mmHg 93%
    04:00 +14°C° 0.3 mm 2 mps 728 mmHg 93%
    05:00 +13°C° 0.3 mm 2 mps 728 mmHg 93%
    06:00 +14°C° 0.2 mm 2 mps 728 mmHg 90%
    07:00 +15°C° 0.2 mm 2 mps 728 mmHg 88%
    08:00 +16°C° 0.2 mm 2 mps 728 mmHg 85%
    09:00 +17°C° 0.1 mm 2 mps 728 mmHg 80%
    10:00 +18°C° 0.1 mm 2 mps 728 mmHg 74%
    11:00 +19°C° 0.1 mm 2 mps 728 mmHg 69%
    12:00 +20°C° 0 mm 2 mps 728 mmHg 64%
    13:00 +21°C° 0 mm 2 mps 728 mmHg 60%
    14:00 +23°C° 0 mm 2 mps 727 mmHg 55%
    15:00 +23°C° 0.8 mm 2 mps 727 mmHg 60%
    16:00 +22°C° 0.8 mm 1 mps 727 mmHg 66%
    17:00 +21°C° 0.8 mm 1 mps 727 mmHg 71%
    18:00 +20°C° 0.6 mm 1 mps 727 mmHg 77%
    19:00 +19°C° 0.6 mm 1 mps 727 mmHg 83%
    20:00 +16°C° 0.6 mm 1 mps 727 mmHg 89%
    21:00 +16°C° 0.3 mm 1 mps 727 mmHg 90%
    22:00 +15°C° 0.3 mm 2 mps 727 mmHg 91%
    23:00 +15°C° 0.3 mm 2 mps 727 mmHg 92%

    25 May, Saturday

    Time Temperature Precipitation Wind Pressure Humidity
    00:00 +14°C° 0.2 mm 2 mps 727 mmHg 91%
    01:00 +14°C° 0.2 mm 2 mps 727 mmHg 91%
    02:00 +14°C° 0.2 mm 2 mps 727 mmHg 91%
    03:00 +13°C° 0 mm 2 mps 727 mmHg 90%
    04:00 +13°C° 0 mm 2 mps 727 mmHg 90%
    05:00 +12°C° 0 mm 3 mps 727 mmHg 90%
    06:00 +13°C° 0 mm 3 mps 728 mmHg 85%
    07:00 +14°C° 0 mm 3 mps 728 mmHg 81%
    08:00 +17°C° 0 mm 4 mps 729 mmHg 77%
    09:00 +18°C° 0 mm 4 mps 729 mmHg 72%
    10:00 +19°C° 0 mm 4 mps 729 mmHg 68%
    11:00 +21°C° 0 mm 4 mps 730 mmHg 63%
    12:00 +21°C° 0.2 mm 4 mps 730 mmHg 63%
    13:00 +22°C° 0.2 mm 3 mps 730 mmHg 62%
    14:00 +22°C° 0.2 mm 3 mps 729 mmHg 62%
    15:00 +22°C° 0.7 mm 3 mps 729 mmHg 65%
    16:00 +21°C° 0.7 mm 3 mps 729 mmHg 69%
    17:00 +21°C° 0.7 mm 3 mps 729 mmHg 72%
    18:00 +19°C° 0.2 mm 2 mps 730 mmHg 77%
    19:00 +18°C° 0.2 mm 2 mps 730 mmHg 82%
    20:00 +16°C° 0.2 mm 2 mps 730 mmHg 86%
    21:00 +16°C° 0 mm 2 mps 730 mmHg 87%
    22:00 +15°C° 0 mm 2 mps 731 mmHg 87%
    23:00 +15°C° 0 mm 2 mps 731 mmHg 88%

    26 May, Sunday

    Time Temperature Precipitation Wind Pressure Humidity
    00:00 +14°C° 0 mm 2 mps 731 mmHg 88%
    01:00 +14°C° 0 mm 2 mps 731 mmHg 88%
    02:00 +14°C° 0 mm 2 mps 731 mmHg 88%
    03:00 +14°C° 0 mm 2 mps 731 mmHg 88%
    04:00 +13°C° 0 mm 1 mps 731 mmHg 88%
    05:00 +13°C° 0 mm 1 mps 731 mmHg 89%
    06:00 +15°C° 0 mm 1 mps 732 mmHg 82%
    07:00 +18°C° 0 mm 1 mps 732 mmHg 75%
    08:00 +21°C° 0 mm 1 mps 732 mmHg 69%
    09:00 +22°C° 0 mm 1 mps 732 mmHg 64%
    10:00 +23°C° 0 mm 2 mps 732 mmHg 59%
    11:00 +25°C° 0 mm 2 mps 732 mmHg 54%
    12:00 +25°C° 0 mm 2 mps 732 mmHg 52%
    13:00 +25°C° 0 mm 2 mps 732 mmHg 50%
    14:00 +26°C° 0 mm 3 mps 731 mmHg 48%
    15:00 +26°C° 0 mm 2 mps 731 mmHg 50%
    16:00 +26°C° 0 mm 2 mps 731 mmHg 52%
    17:00 +25°C° 0 mm 2 mps 731 mmHg 54%
    18:00 +24°C° 0 mm 1 mps 731 mmHg 61%
    19:00 +22°C° 0 mm 1 mps 731 mmHg 68%
    20:00 +20°C° 0 mm 1 mps 731 mmHg 76%
    21:00 +19°C° 0 mm 1 mps 731 mmHg 78%
    22:00 +19°C° 0 mm 1 mps 731 mmHg 81%
    23:00 +16°C° 0 mm 0 mps 731 mmHg 83%

    27 May, Monday

    Time Temperature Precipitation Wind Pressure Humidity
    00:00 +18°C° 0.1 mm 1 mps 731 mmHg 84%
    01:00 +18°C° 0.1 mm 1 mps 731 mmHg 85%
    02:00 +18°C° 0.1 mm 1 mps 731 mmHg 86%
    03:00 +18°C° 0 mm 1 mps 731 mmHg 86%
    04:00 +18°C° 0 mm 1 mps 731 mmHg 86%
    05:00 +18°C° 0 mm 1 mps 731 mmHg 86%
    06:00 +19°C° 0 mm 1 mps 731 mmHg 80%
    07:00 +20°C° 0 mm 1 mps 731 mmHg 75%
    08:00 +22°C° 0 mm 1 mps 732 mmHg 70%
    09:00 +23°C° 0 mm 1 mps 732 mmHg 63%
    10:00 +25°C° 0 mm 1 mps 732 mmHg 56%
    11:00 +26°C° 0 mm 1 mps 732 mmHg 49%
    12:00 +27°C° 0 mm 1 mps 732 mmHg 47%
    13:00 +27°C° 0 mm 1 mps 732 mmHg 44%
    14:00 +28°C° 0 mm 1 mps 732 mmHg 42%
    15:00 +28°C° 0 mm 1 mps 732 mmHg 45%
    16:00 +27°C° 0 mm 1 mps 732 mmHg 49%
    17:00 +27°C° 0 mm 1 mps 732 mmHg 52%
    18:00 +25°C° 0.1 mm 1 mps 732 mmHg 57%
    19:00 +21°C° 0.1 mm 0 mps 732 mmHg 62%
    20:00 +19°C° 0.1 mm 0 mps 732 mmHg 67%
    21:00 +18°C° 0 mm 0 mps 732 mmHg 69%
    22:00 +17°C° 0 mm 0 mps 732 mmHg 72%
    23:00 +17°C° 0 mm 0 mps 732 mmHg 74%
    Show more